Driggs, ID

6:16 PM MDT on June 24, 2017 (GMT -0600)
Driggs

Weather History for KDIJ - January, 2013

Change the Weather History Date:

Tuesday, January 29, 2013

  Actual Average (KJAC) Record (KJAC)
Temperature  
Mean Temperature 13 °F -  
Max Temperature 19 °F 26 °F 51 °F (2014)
Min Temperature 7 °F -1 °F -31 °F (1979)
Degree Days  
Heating Degree Days 52    
Moisture  
Dew Point 11 °F    
Average Humidity 83    
Maximum Humidity 92    
Minimum Humidity 73    
Precipitation  
Precipitation 0.00 in - - ()
Sea Level Pressure  
Sea Level Pressure 29.88 in    
Wind  
Wind Speed 6 mph (SE)    
Max Wind Speed 12 mph    
Max Gust Speed -    
Visibility 6 miles    
Events Fog , Snow    
Averages and records for this station are not official NWS values.
T = Trace of Precipitation, MM = Missing Value Source: NWS Daily Summary

Daily Weather History Graph

Daily Weather History Graph

Search for Another Location

Airport or City:

Trip Planner

Search our weather history database for the weather conditions in past years. The results will help you decide how hot, cold, wet, or windy it might be!

Date:

Astronomy

Jan. 29, 2013 Rise Set
Actual Time 7:43 AM MST 5:31 PM MST
Civil Twilight 7:13 AM MST 6:02 PM MST
Nautical Twilight 6:38 AM MST 6:37 PM MST
Astronomical Twilight 6:04 AM MST 7:10 PM MST
Moon 8:39 PM MST (1/29) 8:35 AM MST (1/29)
Length of Visible Light 10h 49m
Length of Day
9h 47m
Waning Gibbous, 93% of the Moon is Illuminated
Jan 29
Waning Gibbous
Feb 3
Last Quarter
Feb 10
New
Feb 17
First Quarter
Feb 25
Full

Hourly Weather History & Observations

Time (MST) Temp. Windchill Dew Point Humidity Pressure Visibility Wind Dir Wind Speed Gust Speed Precip Events Conditions
12:19 AM 14.0 °F 1.2 °F 8.6 °F 79% 29.75 in 10.0 mi South 10.4 mph - N/A   Overcast
12:27 AM 15.8 °F 3.4 °F 8.6 °F 73% 29.74 in 10.0 mi South 10.4 mph - N/A   Overcast
12:56 AM 15.1 °F 2.5 °F 10.0 °F 80% 29.84 in 10.0 mi South 10.4 mph - N/A   Mostly Cloudy
1:08 AM 15.8 °F 4.2 °F 10.4 °F 79% 29.74 in 10.0 mi South 9.2 mph - N/A   Mostly Cloudy
1:56 AM 16.2 °F 3.2 °F 12.0 °F 84% 29.81 in 10.0 mi South 11.5 mph - N/A   Mostly Cloudy
2:56 AM 16.2 °F 4.7 °F 11.1 °F 81% 29.81 in 10.0 mi SSE 9.2 mph - N/A   Overcast
3:56 AM 16.2 °F 3.2 °F 11.1 °F 81% 29.82 in 10.0 mi South 11.5 mph - N/A   Overcast
4:56 AM 16.2 °F 3.9 °F 11.1 °F 81% 29.81 in 10.0 mi South 10.4 mph - N/A   Overcast
5:56 AM 16.2 °F 5.5 °F 10.0 °F 77% 29.83 in 10.0 mi SSE 8.1 mph - N/A   Overcast
6:28 AM 15.8 °F 7.2 °F 10.4 °F 79% 29.72 in 10.0 mi South 5.8 mph - 0.00 in Snow Light Snow
6:40 AM 15.8 °F 7.2 °F 10.4 °F 79% 29.73 in 3.0 mi South 5.8 mph - 0.00 in Snow Light Snow
6:49 AM 15.8 °F 6.1 °F 10.4 °F 79% 29.73 in 4.0 mi South 6.9 mph - 0.00 in Snow Light Snow
6:56 AM 16.2 °F 7.6 °F 11.1 °F 81% 29.83 in 4.0 mi South 5.8 mph - 0.00 in Snow Light Snow
7:02 AM 15.8 °F 7.2 °F 12.2 °F 86% 29.73 in 2.5 mi South 5.8 mph - 0.00 in Snow Light Snow
7:13 AM 15.8 °F 7.2 °F 12.2 °F 86% 29.73 in 3.0 mi South 5.8 mph - 0.00 in Snow Light Snow
7:33 AM 15.8 °F 8.6 °F 12.2 °F 86% 29.74 in 7.0 mi SSE 4.6 mph - 0.00 in Snow Light Snow
7:38 AM 15.8 °F 8.6 °F 12.2 °F 86% 29.74 in 2.5 mi SSE 4.6 mph - 0.00 in Snow Light Snow
7:42 AM 15.8 °F 8.6 °F 12.2 °F 86% 29.74 in 1.2 mi SSE 4.6 mph - 0.00 in Snow Light Snow
7:47 AM 15.8 °F 8.6 °F 12.2 °F 86% 29.74 in 0.8 mi SSE 4.6 mph - 0.00 in Snow Light Snow
7:56 AM 16.2 °F 10.6 °F 12.0 °F 84% 29.85 in 0.5 mi SSE 3.5 mph - 0.00 in Fog , Snow Light Snow
8:19 AM 15.8 °F 10.2 °F 12.2 °F 86% 29.75 in 0.8 mi WSW 3.5 mph - 0.00 in Snow Light Snow
8:26 AM 15.8 °F 10.2 °F 12.2 °F 86% 29.75 in 1.2 mi WSW 3.5 mph - 0.00 in Snow Light Snow
8:34 AM 15.8 °F - 12.2 °F 86% 29.76 in 2.0 mi Calm Calm - 0.00 in Snow Light Snow
8:38 AM 15.8 °F - 12.2 °F 86% 29.76 in 3.0 mi Calm Calm - 0.00 in Snow Light Snow
8:56 AM 16.2 °F - 13.1 °F 88% 29.88 in 2.0 mi Calm Calm - 0.00 in Snow Light Snow
9:05 AM 15.8 °F - 12.2 °F 86% 29.77 in 1.5 mi Calm Calm - 0.00 in Snow Light Snow
9:20 AM 15.8 °F - 12.2 °F 86% 29.77 in 1.2 mi Calm Calm - 0.00 in Snow Light Snow
9:27 AM 15.8 °F - 12.2 °F 86% 29.77 in 2.0 mi Calm Calm - 0.00 in Snow Light Snow
9:48 AM 17.6 °F 12.3 °F 12.2 °F 79% 29.78 in 2.5 mi NE 3.5 mph - 0.00 in Snow Light Snow
9:56 AM 18.1 °F 12.9 °F 13.1 °F 81% 29.89 in 3.0 mi NE 3.5 mph - 0.00 in Snow Light Snow
9:59 AM 17.6 °F - 14.0 °F 86% 29.79 in 3.0 mi Calm Calm - 0.00 in Snow Light Snow
10:21 AM 19.4 °F - 12.2 °F 74% 29.80 in 3.0 mi Calm Calm - 0.00 in Snow Light Snow
10:25 AM 17.6 °F 12.3 °F 12.2 °F 79% 29.80 in 2.5 mi NW 3.5 mph - 0.00 in Snow Light Snow
10:33 AM 17.6 °F 10.7 °F 12.2 °F 79% 29.81 in 1.5 mi NW 4.6 mph - 0.00 in Snow Light Snow
10:38 AM 17.6 °F 10.7 °F 12.2 °F 79% 29.81 in 1.2 mi NNW 4.6 mph - 0.00 in Snow Light Snow
10:45 AM 17.6 °F 9.3 °F 14.0 °F 86% 29.81 in 0.8 mi NNW 5.8 mph - 0.00 in Snow Light Snow
10:56 AM 17.1 °F 10.0 °F 13.1 °F 84% 29.93 in 1.0 mi NNW 4.6 mph - 0.00 in Snow Light Snow
11:00 AM 17.6 °F 9.3 °F 14.0 °F 86% 29.82 in 1.5 mi NNW 5.8 mph - 0.00 in Snow Light Snow
11:07 AM 17.6 °F 9.3 °F 14.0 °F 86% 29.83 in 3.0 mi North 5.8 mph - 0.00 in Snow Light Snow
11:24 AM 19.4 °F 11.5 °F 14.0 °F 80% 29.83 in 10.0 mi North 5.8 mph - 0.00 in Snow Light Snow
11:56 AM 18.1 °F 6.3 °F 13.1 °F 81% 29.95 in 10.0 mi North 10.4 mph - 0.00 in Snow Light Snow
12:25 PM 17.6 °F 7.3 °F 14.0 °F 86% 29.85 in 10.0 mi NNE 8.1 mph - 0.00 in   Overcast
12:56 PM 19.0 °F 8.2 °F 13.1 °F 78% 29.96 in 10.0 mi NNE 9.2 mph - 0.00 in   Overcast
1:10 PM 17.6 °F 8.2 °F 12.2 °F 79% 29.86 in 10.0 mi NNW 6.9 mph - 0.00 in   Overcast
1:24 PM 15.8 °F 3.4 °F 12.2 °F 86% 29.86 in 10.0 mi NNW 10.4 mph - 0.00 in   Mostly Cloudy
1:56 PM 18.1 °F 7.9 °F 12.0 °F 77% 29.97 in 10.0 mi North 8.1 mph - 0.00 in   Partly Cloudy
2:56 PM 19.0 °F - 13.1 °F 78% 30.00 in 10.0 mi Calm Calm - N/A   Scattered Clouds
3:07 PM 19.4 °F - 12.2 °F 74% 29.90 in 10.0 mi Calm Calm - N/A   Mostly Cloudy
3:56 PM 17.1 °F - 12.0 °F 81% 30.04 in 10.0 mi Calm Calm - N/A   Overcast
4:22 PM 15.8 °F 10.2 °F 10.4 °F 79% 29.94 in 10.0 mi North 3.5 mph - N/A   Mostly Cloudy
4:56 PM 9.1 °F - 5.0 °F 83% 30.10 in 10.0 mi Calm Calm - N/A   Partly Cloudy
5:56 PM 10.0 °F 1.8 °F 8.1 °F 92% 30.13 in 10.0 mi ENE 4.6 mph - N/A   Scattered Clouds
6:56 PM 10.0 °F - 7.2 °F 88% 30.15 in 10.0 mi Calm Calm - N/A   Mostly Cloudy
7:32 PM 8.6 °F 2.0 °F 6.8 °F 92% 30.01 in 10.0 mi SSE 3.5 mph - N/A   Mostly Cloudy
7:44 PM 8.6 °F - 5.0 °F 85% 30.02 in 10.0 mi Calm Calm - N/A   Mostly Cloudy
7:56 PM 7.2 °F -1.5 °F 3.0 °F 83% 30.18 in 10.0 mi East 4.6 mph - N/A   Overcast
8:09 PM 10.4 °F 0.8 °F 6.8 °F 85% 30.02 in 10.0 mi ESE 5.8 mph - N/A   Mostly Cloudy
8:17 PM 8.6 °F -1.3 °F 6.8 °F 92% 30.02 in 10.0 mi East 5.8 mph - N/A   Overcast
8:44 PM 10.4 °F - 8.6 °F 92% 30.03 in 10.0 mi Calm Calm - N/A   Mostly Cloudy
8:56 PM 11.1 °F 4.9 °F 8.1 °F 87% 30.16 in 10.0 mi SSE 3.5 mph - N/A   Mostly Cloudy
9:24 PM 12.2 °F 2.9 °F 8.6 °F 85% 30.02 in 10.0 mi ESE 5.8 mph - N/A   Overcast
9:56 PM 10.0 °F - 7.2 °F 88% 30.16 in 10.0 mi Calm Calm - N/A   Overcast
10:56 PM 12.0 °F 4.1 °F 9.1 °F 88% 30.15 in 10.0 mi SE 4.6 mph - N/A   Overcast
11:56 PM 16.2 °F 4.7 °F 11.1 °F 81% 30.14 in 10.0 mi SSE 9.2 mph - N/A   Overcast